Location: Dattensoll
(49.9928°N, 9.8954°E)
Time: 17:43:44
(UTC+00:00)

ARIANE 6 FM1 Upper Stage - Pass Details

Date: 19 May 2025
Orbit: 531 x 610 km, 62.0° (Epoch: 16 June)

Event Time Altitude Azimuth Distance (km) Brightness Sun altitude
Rises 20:18:00 0° 220° (SW) 2,663 6.0 -9.7°
Reaches altitude 10° 20:20:10 10° 219° (SW) 1,776 5.1 -9.9°
Maximum altitude 20:24:09 78° 133° (SE) 550 2.5 -10.3°
Drops below altitude 10° 20:28:11 10° 48° (NE) 1,803 5.3 -10.7°
Sets 20:30:25 0° 47° (NE) 2,707 6.2 -11.0°
